Location: �quirre
(50.4736°N, 2.2351°E)
Time: 03:33:49
(UTC+00:00)

ARIANE 5 R/B - Pass Details

Date: 07 August 2020
Orbit: 748 x 795 km, 98.6° (Epoch: 25 September)

Event Time Altitude Azimuth Distance (km) Brightness Sun altitude
Rises 02:05:55 0° 21° (NNE) 3,296 7.4 -17.4°
Reaches altitude 10° 02:08:26 10° 30° (NNE) 2,367 6.4 -17.2°
Maximum altitude 02:13:15 36° 96° (E) 1,234 3.8 -16.8°
Enters shadow 02:18:00 10° 163° (SSE) 2,340 4.7 -16.4°
